When you browse on this site, cookies collect data to enhance your experience and personalize the content and advertising you see.
Visit our Privacy Policy to learn more. By continuing to use the site, you agree to this use of cookies and data.
  • In Hungary
  • List of Countries
  • For 7 days
  • Water Temperature
  • Satellite Maps
  • Weather Map
  • News
  • Weather Widgets
  • user-avatar
    Login

    Hourly Weather Kayalpattinam

    Today, 21 April, Sunday

    Time Temperature Precipitation Wind Pressure Humidity
    00:00 +33°C° 0.6 mm 4 mps 755 mmHg 66%
    01:00 +33°C° 0.6 mm 3 mps 755 mmHg 67%
    02:00 +31°C° 0.6 mm 3 mps 754 mmHg 67%
    03:00 +31°C° 0.6 mm 2 mps 754 mmHg 66%
    04:00 +31°C° 0.6 mm 1 mps 754 mmHg 65%
    05:00 +31°C° 0 mm 1 mps 755 mmHg 67%
    06:00 +32°C° 0.4 mm 1 mps 755 mmHg 62%
    07:00 +33°C° 0.4 mm 1 mps 755 mmHg 57%
    08:00 +33°C° 0.4 mm 1 mps 756 mmHg 53%
    09:00 +34°C° 0 mm 1 mps 756 mmHg 50%
    10:00 +36°C° 0 mm 2 mps 756 mmHg 47%
    11:00 +38°C° 0 mm 2 mps 756 mmHg 41%
    12:00 +38°C° 0 mm 3 mps 755 mmHg 41%
    13:00 +38°C° 0 mm 4 mps 754 mmHg 41%
    14:00 +40°C° 0 mm 5 mps 753 mmHg 41%
    15:00 +39°C° 0 mm 5 mps 753 mmHg 46%
    16:00 +36°C° 0 mm 5 mps 753 mmHg 50%
    17:00 +35°C° 0 mm 6 mps 753 mmHg 55%
    18:00 +35°C° 0 mm 6 mps 754 mmHg 59%
    19:00 +34°C° 0 mm 6 mps 754 mmHg 62%
    20:00 +34°C° 0 mm 5 mps 754 mmHg 66%
    21:00 +34°C° 0.4 mm 5 mps 754 mmHg 66%
    22:00 +33°C° 0.4 mm 4 mps 755 mmHg 67%
    23:00 +33°C° 0.4 mm 4 mps 755 mmHg 67%

    Tomorrow, 22 April, Monday

    Time Temperature Precipitation Wind Pressure Humidity
    00:00 +33°C° 0.3 mm 4 mps 754 mmHg 67%
    01:00 +33°C° 0.3 mm 3 mps 754 mmHg 68%
    02:00 +33°C° 0.3 mm 3 mps 753 mmHg 68%
    03:00 +31°C° 0 mm 2 mps 753 mmHg 68%
    04:00 +31°C° 0 mm 2 mps 753 mmHg 68%
    05:00 +31°C° 0 mm 2 mps 753 mmHg 69%
    06:00 +32°C° 0 mm 1 mps 754 mmHg 63%
    07:00 +33°C° 0 mm 1 mps 755 mmHg 57%
    08:00 +34°C° 0 mm 1 mps 755 mmHg 51%
    09:00 +36°C° 0 mm 1 mps 755 mmHg 46%
    10:00 +38°C° 0 mm 2 mps 755 mmHg 41%
    11:00 +40°C° 0 mm 3 mps 755 mmHg 36%
    12:00 +41°C° 0 mm 4 mps 754 mmHg 36%
    13:00 +41°C° 0 mm 5 mps 754 mmHg 36%
    14:00 +42°C° 0 mm 6 mps 753 mmHg 36%
    15:00 +40°C° 0 mm 6 mps 753 mmHg 41%
    16:00 +39°C° 0 mm 6 mps 753 mmHg 47%
    17:00 +36°C° 0 mm 6 mps 753 mmHg 53%
    18:00 +35°C° 0 mm 6 mps 753 mmHg 57%
    19:00 +35°C° 0 mm 5 mps 754 mmHg 61%
    20:00 +34°C° 0 mm 5 mps 755 mmHg 65%
    21:00 +34°C° 0 mm 4 mps 755 mmHg 64%
    22:00 +34°C° 0 mm 3 mps 755 mmHg 63%
    23:00 +34°C° 0 mm 2 mps 755 mmHg 62%

    Day after tomorrow, 23 April, Tuesday

    Time Temperature Precipitation Wind Pressure Humidity
    00:00 +34°C° 0 mm 2 mps 755 mmHg 61%
    01:00 +32°C° 0 mm 1 mps 755 mmHg 61%
    02:00 +32°C° 0 mm 1 mps 754 mmHg 60%
    03:00 +32°C° 0.1 mm 1 mps 754 mmHg 61%
    04:00 +32°C° 0.1 mm 1 mps 754 mmHg 61%
    05:00 +32°C° 0.1 mm 1 mps 754 mmHg 62%
    06:00 +33°C° 0 mm 1 mps 755 mmHg 58%
    07:00 +34°C° 0 mm 1 mps 755 mmHg 55%
    08:00 +34°C° 0 mm 1 mps 756 mmHg 51%
    09:00 +37°C° 0 mm 2 mps 756 mmHg 47%
    10:00 +38°C° 0 mm 3 mps 756 mmHg 44%
    11:00 +40°C° 0 mm 4 mps 756 mmHg 40%
    12:00 +40°C° 0 mm 4 mps 755 mmHg 41%
    13:00 +41°C° 0 mm 5 mps 754 mmHg 41%
    14:00 +41°C° 0 mm 6 mps 754 mmHg 42%
    15:00 +40°C° 0 mm 6 mps 754 mmHg 47%
    16:00 +37°C° 0 mm 5 mps 754 mmHg 51%
    17:00 +36°C° 0 mm 5 mps 753 mmHg 56%
    18:00 +35°C° 0.1 mm 4 mps 754 mmHg 58%
    19:00 +35°C° 0.1 mm 3 mps 755 mmHg 60%
    20:00 +34°C° 0.1 mm 3 mps 756 mmHg 62%
    21:00 +34°C° 0 mm 2 mps 756 mmHg 63%
    22:00 +34°C° 0 mm 2 mps 756 mmHg 64%
    23:00 +32°C° 0 mm 1 mps 756 mmHg 64%

    24 April, Wednesday

    Time Temperature Precipitation Wind Pressure Humidity
    00:00 +32°C° 0 mm 1 mps 756 mmHg 66%
    01:00 +32°C° 0 mm 1 mps 755 mmHg 67%
    02:00 +31°C° 0 mm 1 mps 755 mmHg 69%
    03:00 +31°C° 0 mm 1 mps 755 mmHg 70%
    04:00 +31°C° 0 mm 1 mps 755 mmHg 71%
    05:00 +31°C° 0 mm 1 mps 755 mmHg 72%
    06:00 +32°C° 0 mm 1 mps 756 mmHg 68%
    07:00 +33°C° 0 mm 1 mps 757 mmHg 64%
    08:00 +34°C° 0 mm 2 mps 757 mmHg 60%
    09:00 +36°C° 0 mm 2 mps 757 mmHg 55%
    10:00 +37°C° 0 mm 3 mps 757 mmHg 50%
    11:00 +38°C° 0 mm 4 mps 757 mmHg 45%
    12:00 +40°C° 0 mm 4 mps 756 mmHg 44%
    13:00 +40°C° 0 mm 5 mps 755 mmHg 42%
    14:00 +40°C° 0 mm 5 mps 754 mmHg 41%
    15:00 +39°C° 0 mm 6 mps 754 mmHg 46%
    16:00 +38°C° 0 mm 6 mps 754 mmHg 52%
    17:00 +36°C° 0 mm 6 mps 754 mmHg 57%
    18:00 +35°C° 0 mm 5 mps 754 mmHg 59%
    19:00 +34°C° 0 mm 4 mps 755 mmHg 61%
    20:00 +33°C° 0 mm 3 mps 756 mmHg 63%
    21:00 +33°C° 0 mm 3 mps 756 mmHg 65%
    22:00 +33°C° 0 mm 3 mps 756 mmHg 67%
    23:00 +32°C° 0 mm 2 mps 756 mmHg 69%

    25 April, Thursday

    Time Temperature Precipitation Wind Pressure Humidity
    00:00 +31°C° 0 mm 2 mps 756 mmHg 69%
    01:00 +31°C° 0 mm 2 mps 755 mmHg 69%
    02:00 +31°C° 0 mm 1 mps 755 mmHg 70%
    03:00 +31°C° 0 mm 1 mps 755 mmHg 69%
    04:00 +31°C° 0 mm 1 mps 755 mmHg 69%
    05:00 +31°C° 0 mm 1 mps 756 mmHg 69%
    06:00 +32°C° 0 mm 1 mps 756 mmHg 65%
    07:00 +33°C° 0 mm 1 mps 757 mmHg 62%
    08:00 +31°C° 0 mm 0 mps 758 mmHg 58%
    09:00 +35°C° 0 mm 1 mps 757 mmHg 54%
    10:00 +37°C° 0 mm 2 mps 757 mmHg 49%
    11:00 +38°C° 0 mm 2 mps 757 mmHg 45%
    12:00 +38°C° 0 mm 3 mps 756 mmHg 44%
    13:00 +40°C° 0 mm 4 mps 755 mmHg 43%
    14:00 +40°C° 0 mm 5 mps 754 mmHg 43%
    15:00 +39°C° 0 mm 5 mps 754 mmHg 48%
    16:00 +37°C° 0 mm 5 mps 754 mmHg 53%
    17:00 +36°C° 0 mm 5 mps 754 mmHg 59%
    18:00 +35°C° 0 mm 5 mps 755 mmHg 62%
    19:00 +34°C° 0 mm 5 mps 755 mmHg 65%
    20:00 +33°C° 0 mm 5 mps 756 mmHg 68%
    21:00 +33°C° 0 mm 5 mps 756 mmHg 69%
    22:00 +33°C° 0 mm 5 mps 756 mmHg 69%
    23:00 +33°C° 0 mm 4 mps 756 mmHg 69%

    26 April, Friday

    Time Temperature Precipitation Wind Pressure Humidity
    00:00 +33°C° 0 mm 4 mps 756 mmHg 70%
    01:00 +31°C° 0 mm 3 mps 755 mmHg 70%
    02:00 +31°C° 0 mm 3 mps 754 mmHg 71%
    03:00 +31°C° 0 mm 3 mps 755 mmHg 72%
    04:00 +31°C° 0 mm 3 mps 755 mmHg 72%
    05:00 +31°C° 0 mm 3 mps 755 mmHg 73%
    06:00 +33°C° 0 mm 3 mps 756 mmHg 68%
    07:00 +34°C° 0 mm 2 mps 756 mmHg 63%
    08:00 +34°C° 0 mm 2 mps 757 mmHg 57%
    09:00 +36°C° 0 mm 2 mps 757 mmHg 51%
    10:00 +37°C° 0 mm 3 mps 757 mmHg 45%
    11:00 +39°C° 0 mm 3 mps 756 mmHg 39%
    12:00 +40°C° 0 mm 4 mps 755 mmHg 39%
    13:00 +41°C° 0 mm 5 mps 755 mmHg 39%
    14:00 +42°C° 0 mm 6 mps 754 mmHg 38%
    15:00 +40°C° 0 mm 7 mps 754 mmHg 44%
    16:00 +39°C° 0 mm 7 mps 754 mmHg 49%
    17:00 +38°C° 0 mm 8 mps 754 mmHg 54%
    18:00 +37°C° 0 mm 8 mps 755 mmHg 58%
    19:00 +35°C° 0 mm 8 mps 755 mmHg 62%
    20:00 +34°C° 0 mm 7 mps 756 mmHg 66%
    21:00 +34°C° 0 mm 7 mps 756 mmHg 67%
    22:00 +34°C° 0 mm 7 mps 756 mmHg 68%
    23:00 +33°C° 0 mm 7 mps 756 mmHg 69%
    Show more